Time,TemperatureF,DewpointF,PressureIn,WindDirection,WindDirectionDegrees,WindSpeedMPH,WindSpeedGustMPH,Humidity,HourlyPrecipIn,Conditions,Clouds,dailyrainin,SolarRadiationWatts/m^2,SoftwareType,DateUTC
2013-03-11 00:02:00,32.7,31.7,29.78,NNE,26,5.0,9.0,96,0.00,,,0.00,0,Wunderground v.1.15,2013-03-11 05:02:00,
2013-03-11 00:08:00,32.7,31.7,29.79,NW,317,4.0,12.0,96,0.00,,,0.00,0,Wunderground v.1.15,2013-03-11 05:08:00,
2013-03-11 00:13:00,32.6,31.6,29.79,NW,309,6.0,6.0,96,0.00,,,0.00,0,Wunderground v.1.15,2013-03-11 05:13:00,
2013-03-11 00:18:00,32.6,31.6,29.79,NNE,25,2.0,6.0,96,0.00,,,0.00,0,Wunderground v.1.15,2013-03-11 05:18:00,
2013-03-11 00:24:00,32.6,31.6,29.78,NNE,19,1.0,4.0,96,0.00,,,0.00,0,Wunderground v.1.15,2013-03-11 05:24:00,
2013-03-11 00:29:00,32.6,31.6,29.78,NNE,14,5.0,7.0,96,0.00,,,0.00,0,Wunderground v.1.15,2013-03-11 05:29:00,
2013-03-11 00:34:00,32.6,31.6,29.77,NNE,14,2.0,6.0,96,0.00,,,0.00,0,Wunderground v.1.15,2013-03-11 05:34:00,
2013-03-11 00:39:00,32.6,31.6,29.77,NNE,14,7.0,7.0,96,0.00,,,0.00,0,Wunderground v.1.15,2013-03-11 05:39:00,
2013-03-11 00:45:00,32.6,31.6,29.76,NNE,14,6.0,8.0,96,0.00,,,0.00,0,Wunderground v.1.15,2013-03-11 05:45:00,
2013-03-11 00:52:00,32.6,31.6,29.76,NNE,14,3.0,6.0,96,0.00,,,0.00,0,Wunderground v.1.15,2013-03-11 05:52:00,
2013-03-11 00:58:00,32.6,31.6,29.76,NNE,14,4.0,6.0,96,0.00,,,0.00,0,Wunderground v.1.15,2013-03-11 05:58:00,
2013-03-11 01:04:00,32.6,31.6,29.76,NNE,14,4.0,6.0,96,0.00,,,0.00,0,Wunderground v.1.15,2013-03-11 06:04:00,
2013-03-11 01:09:00,32.6,31.6,29.76,NNE,14,3.0,6.0,96,0.00,,,0.00,0,Wunderground v.1.15,2013-03-11 06:09:00,
2013-03-11 01:15:00,32.6,31.6,29.76,NNE,14,4.0,4.0,96,0.00,,,0.00,0,Wunderground v.1.15,2013-03-11 06:15:00,
2013-03-11 01:20:00,32.6,31.6,29.75,NNE,14,3.0,4.0,96,0.00,,,0.00,0,Wunderground v.1.15,2013-03-11 06:20:00,
2013-03-11 01:27:00,32.6,31.6,29.75,NNE,14,2.0,10.0,96,0.00,,,0.00,0,Wunderground v.1.15,2013-03-11 06:27:00,
2013-03-11 01:33:00,32.6,31.6,29.75,NNE,14,3.0,4.0,96,0.00,,,0.00,0,Wunderground v.1.15,2013-03-11 06:33:00,
2013-03-11 01:39:00,32.6,31.6,29.74,NNE,14,4.0,8.0,96,0.00,,,0.00,0,Wunderground v.1.15,2013-03-11 06:39:00,
2013-03-11 01:44:00,32.6,31.6,29.74,NNE,14,3.0,6.0,96,0.00,,,0.00,0,Wunderground v.1.15,2013-03-11 06:44:00,
2013-03-11 01:49:00,32.6,31.6,29.74,NNE,14,6.0,6.0,96,0.00,,,0.00,0,Wunderground v.1.15,2013-03-11 06:49:00,
2013-03-11 01:55:00,32.6,31.6,29.74,NNE,14,4.0,5.0,96,0.00,,,0.00,0,Wunderground v.1.15,2013-03-11 06:55:00,
2013-03-11 02:00:00,32.6,31.6,29.73,NNE,14,6.0,6.0,96,0.00,,,0.00,0,Wunderground v.1.15,2013-03-11 07:00:00,
2013-03-11 02:05:00,32.6,31.6,29.74,NNE,14,3.0,10.0,96,0.00,,,0.00,0,Wunderground v.1.15,2013-03-11 07:05:00,
2013-03-11 02:10:00,32.6,31.6,29.74,NNE,14,5.0,5.0,96,0.00,,,0.00,0,Wunderground v.1.15,2013-03-11 07:10:00,
2013-03-11 02:15:00,32.6,31.6,29.73,NNE,14,5.0,8.0,96,0.00,,,0.00,0,Wunderground v.1.15,2013-03-11 07:15:00,
2013-03-11 02:20:00,32.6,31.6,29.73,NNE,14,6.0,7.0,96,0.00,,,0.00,0,Wunderground v.1.15,2013-03-11 07:20:00,
2013-03-11 02:25:00,32.6,31.6,29.74,NNE,14,5.0,9.0,96,0.00,,,0.00,0,Wunderground v.1.15,2013-03-11 07:25:00,
2013-03-11 02:30:00,32.6,31.6,29.73,NNE,14,1.0,3.0,96,0.00,,,0.00,0,Wunderground v.1.15,2013-03-11 07:30:00,
2013-03-11 02:35:00,32.6,31.6,29.73,NNE,14,4.0,6.0,96,0.00,,,0.00,0,Wunderground v.1.15,2013-03-11 07:35:00,
2013-03-11 02:40:00,32.6,31.6,29.72,NNE,14,3.0,7.0,96,0.00,,,0.00,0,Wunderground v.1.15,2013-03-11 07:40:00,
2013-03-11 02:45:00,32.6,31.6,29.72,NNE,14,6.0,9.0,96,0.00,,,0.00,0,Wunderground v.1.15,2013-03-11 07:45:00,
2013-03-11 02:50:00,32.6,31.6,29.72,NNE,14,3.0,6.0,96,0.00,,,0.00,0,Wunderground v.1.15,2013-03-11 07:50:00,
2013-03-11 02:55:00,32.6,31.6,29.72,NNE,14,1.0,6.0,96,0.00,,,0.00,0,Wunderground v.1.15,2013-03-11 07:55:00,
2013-03-11 03:00:00,32.6,31.6,29.72,NNE,14,1.0,4.0,96,0.00,,,0.00,0,Wunderground v.1.15,2013-03-11 08:00:00,
2013-03-11 03:05:00,32.7,31.7,29.72,NNE,14,0.0,4.0,96,0.00,,,0.00,0,Wunderground v.1.15,2013-03-11 08:05:00,
2013-03-11 03:10:00,32.6,31.6,29.72,NNE,14,0.0,2.0,96,0.00,,,0.00,0,Wunderground v.1.15,2013-03-11 08:10:00,
2013-03-11 03:15:00,32.6,31.6,29.72,NNE,14,0.0,4.0,96,0.00,,,0.00,0,Wunderground v.1.15,2013-03-11 08:15:00,
2013-03-11 03:20:00,32.6,31.6,29.72,NNE,14,5.0,5.0,96,0.00,,,0.00,0,Wunderground v.1.15,2013-03-11 08:20:00,
2013-03-11 03:25:00,32.7,31.7,29.73,NNE,14,3.0,5.0,96,0.00,,,0.00,0,Wunderground v.1.15,2013-03-11 08:25:00,
2013-03-11 03:30:00,32.7,31.7,29.73,NNE,14,1.0,3.0,96,0.00,,,0.00,0,Wunderground v.1.15,2013-03-11 08:30:00,
2013-03-11 03:35:00,32.7,31.7,29.73,NNE,14,2.0,3.0,96,0.00,,,0.00,0,Wunderground v.1.15,2013-03-11 08:35:00,
2013-03-11 03:40:00,32.7,31.7,29.72,NNE,14,0.0,1.0,96,0.00,,,0.00,0,Wunderground v.1.15,2013-03-11 08:40:00,
2013-03-11 03:45:00,32.7,31.7,29.72,NNE,14,2.0,2.0,96,0.00,,,0.00,0,Wunderground v.1.15,2013-03-11 08:45:00,
2013-03-11 03:50:00,32.7,31.7,29.72,NNE,14,1.0,2.0,96,0.00,,,0.00,0,Wunderground v.1.15,2013-03-11 08:50:00,
2013-03-11 03:55:00,32.7,31.7,29.72,NNE,14,0.0,2.0,96,0.00,,,0.00,0,Wunderground v.1.15,2013-03-11 08:55:00,
2013-03-11 04:00:00,32.7,31.7,29.72,NNE,14,0.0,2.0,96,0.00,,,0.00,0,Wunderground v.1.15,2013-03-11 09:00:00,
2013-03-11 04:05:00,32.7,31.7,29.72,NNE,14,3.0,3.0,96,0.00,,,0.00,0,Wunderground v.1.15,2013-03-11 09:05:00,
2013-03-11 04:10:00,32.7,31.7,29.72,NNE,14,2.0,2.0,96,0.00,,,0.00,0,Wunderground v.1.15,2013-03-11 09:10:00,
2013-03-11 04:15:00,32.7,31.9,29.72,NNE,14,3.0,3.0,97,0.00,,,0.00,0,Wunderground v.1.15,2013-03-11 09:15:00,
2013-03-11 04:20:00,32.7,31.9,29.72,NNE,14,3.0,3.0,97,0.00,,,0.00,0,Wunderground v.1.15,2013-03-11 09:20:00,
2013-03-11 04:25:00,32.6,31.8,29.72,NNE,14,5.0,5.0,97,0.00,,,0.00,0,Wunderground v.1.15,2013-03-11 09:25:00,
2013-03-11 04:31:00,32.6,31.8,29.72,NNE,14,0.0,2.0,97,0.00,,,0.00,0,Wunderground v.1.15,2013-03-11 09:31:00,
2013-03-11 04:36:00,32.6,31.8,29.71,NNE,14,6.0,6.0,97,0.00,,,0.00,0,Wunderground v.1.15,2013-03-11 09:36:00,
2013-03-11 04:41:00,32.6,31.8,29.71,NNE,14,0.0,2.0,97,0.00,,,0.00,0,Wunderground v.1.15,2013-03-11 09:41:00,
2013-03-11 04:46:00,32.5,31.7,29.71,NNE,14,0.0,2.0,97,0.00,,,0.00,0,Wunderground v.1.15,2013-03-11 09:46:00,
2013-03-11 04:51:00,32.5,31.7,29.71,NNE,14,0.0,0.0,97,0.00,,,0.00,0,Wunderground v.1.15,2013-03-11 09:51:00,
2013-03-11 04:56:00,32.5,31.7,29.71,NNE,14,0.0,0.0,97,0.00,,,0.00,0,Wunderground v.1.15,2013-03-11 09:56:00,
2013-03-11 05:01:00,32.5,31.7,29.71,NNE,14,0.0,0.0,97,0.00,,,0.00,0,Wunderground v.1.15,2013-03-11 10:01:00,
2013-03-11 05:06:00,32.5,31.7,29.70,NNE,14,0.0,0.0,97,0.00,,,0.00,0,Wunderground v.1.15,2013-03-11 10:06:00,
2013-03-11 05:11:00,32.5,31.7,29.70,NNE,14,0.0,0.0,97,0.00,,,0.00,0,Wunderground v.1.15,2013-03-11 10:11:00,
2013-03-11 05:16:00,32.5,31.7,29.71,NNE,14,0.0,0.0,97,0.00,,,0.00,0,Wunderground v.1.15,2013-03-11 10:16:00,
2013-03-11 05:21:00,32.5,31.7,29.71,NNE,14,0.0,0.0,97,0.00,,,0.00,0,Wunderground v.1.15,2013-03-11 10:21:00,
2013-03-11 05:26:00,32.4,31.6,29.70,NNE,14,0.0,0.0,97,0.00,,,0.00,0,Wunderground v.1.15,2013-03-11 10:26:00,
2013-03-11 05:31:00,32.4,31.6,29.71,NNE,14,0.0,0.0,97,0.00,,,0.00,0,Wunderground v.1.15,2013-03-11 10:31:00,
2013-03-11 05:36:00,32.4,31.6,29.70,NNE,14,0.0,0.0,97,0.00,,,0.00,0,Wunderground v.1.15,2013-03-11 10:36:00,
2013-03-11 05:41:00,32.4,31.6,29.70,NNE,14,0.0,0.0,97,0.00,,,0.00,0,Wunderground v.1.15,2013-03-11 10:41:00,
2013-03-11 05:46:00,32.4,31.6,29.70,NNE,14,0.0,0.0,97,0.00,,,0.00,0,Wunderground v.1.15,2013-03-11 10:46:00,
2013-03-11 05:51:00,32.4,31.6,29.70,NNE,14,0.0,0.0,97,0.00,,,0.00,0,Wunderground v.1.15,2013-03-11 10:51:00,
2013-03-11 05:56:00,32.4,31.6,29.71,NNE,14,0.0,0.0,97,0.00,,,0.00,0,Wunderground v.1.15,2013-03-11 10:56:00,
2013-03-11 06:01:00,32.3,31.5,29.70,NNE,14,0.0,0.0,97,0.00,,,0.00,0,Wunderground v.1.15,2013-03-11 11:01:00,
2013-03-11 06:06:00,32.3,31.5,29.71,NNE,14,0.0,0.0,97,0.00,,,0.00,0,Wunderground v.1.15,2013-03-11 11:06:00,
2013-03-11 06:11:00,32.3,31.5,29.71,NNE,14,0.0,0.0,97,0.00,,,0.00,0,Wunderground v.1.15,2013-03-11 11:11:00,
2013-03-11 06:16:00,32.3,31.5,29.71,NNE,14,0.0,0.0,97,0.00,,,0.00,0,Wunderground v.1.15,2013-03-11 11:16:00,
2013-03-11 06:21:00,32.3,31.5,29.71,NNE,14,0.0,0.0,97,0.00,,,0.00,0,Wunderground v.1.15,2013-03-11 11:21:00,
2013-03-11 06:26:00,32.3,31.5,29.71,NNE,14,0.0,0.0,97,0.00,,,0.00,0,Wunderground v.1.15,2013-03-11 11:26:00,
2013-03-11 06:31:00,32.3,31.5,29.71,NNE,14,0.0,0.0,97,0.00,,,0.00,0,Wunderground v.1.15,2013-03-11 11:31:00,
2013-03-11 06:37:00,32.3,31.5,29.72,NNE,14,0.0,0.0,97,0.00,,,0.00,0,Wunderground v.1.15,2013-03-11 11:37:00,
2013-03-11 06:42:00,32.3,31.5,29.72,NNE,14,0.0,0.0,97,0.00,,,0.00,0,Wunderground v.1.15,2013-03-11 11:42:00,
2013-03-11 06:47:00,32.3,31.5,29.71,NNE,14,0.0,0.0,97,0.00,,,0.00,0,Wunderground v.1.15,2013-03-11 11:47:00,
2013-03-11 06:52:00,32.3,31.5,29.72,NNE,14,0.0,0.0,97,0.00,,,0.00,0,Wunderground v.1.15,2013-03-11 11:52:00,
2013-03-11 06:57:00,32.3,31.5,29.73,NNE,14,0.0,0.0,97,0.00,,,0.00,0,Wunderground v.1.15,2013-03-11 11:57:00,
2013-03-11 07:02:00,32.3,31.5,29.73,NNE,14,0.0,0.0,97,0.00,,,0.00,0,Wunderground v.1.15,2013-03-11 12:02:00,
2013-03-11 07:07:00,32.3,31.5,29.74,NNE,14,0.0,0.0,97,0.00,,,0.00,0,Wunderground v.1.15,2013-03-11 12:07:00,
2013-03-11 07:12:00,32.3,31.5,29.74,NNE,14,0.0,0.0,97,0.00,,,0.00,0,Wunderground v.1.15,2013-03-11 12:12:00,
2013-03-11 07:17:00,32.3,31.5,29.73,NNE,14,0.0,0.0,97,0.00,,,0.00,0,Wunderground v.1.15,2013-03-11 12:17:00,
2013-03-11 07:22:00,32.3,31.5,29.74,NNE,14,0.0,0.0,97,0.00,,,0.00,0,Wunderground v.1.15,2013-03-11 12:22:00,
2013-03-11 07:27:00,32.3,31.5,29.74,NNE,14,0.0,0.0,97,0.00,,,0.00,5,Wunderground v.1.15,2013-03-11 12:27:00,
2013-03-11 07:32:00,32.4,31.6,29.74,NNE,14,0.0,0.0,97,0.00,,,0.00,5,Wunderground v.1.15,2013-03-11 12:32:00,
2013-03-11 07:37:00,32.4,31.6,29.75,NNE,14,0.0,0.0,97,0.00,,,0.00,9,Wunderground v.1.15,2013-03-11 12:37:00,
2013-03-11 07:42:00,32.4,31.6,29.75,NNE,14,0.0,0.0,97,0.00,,,0.00,7,Wunderground v.1.15,2013-03-11 12:42:00,
2013-03-11 07:47:00,32.4,31.6,29.75,NNE,14,0.0,0.0,97,0.00,,,0.00,7,Wunderground v.1.15,2013-03-11 12:47:00,
2013-03-11 07:52:00,32.4,31.6,29.75,NNE,14,0.0,0.0,97,0.00,,,0.00,9,Wunderground v.1.15,2013-03-11 12:52:00,
2013-03-11 07:57:00,32.4,31.6,29.75,NNE,14,0.0,0.0,97,0.00,,,0.00,7,Wunderground v.1.15,2013-03-11 12:57:00,
2013-03-11 08:02:00,32.4,31.6,29.75,NNE,14,0.0,0.0,97,0.00,,,0.00,11,Wunderground v.1.15,2013-03-11 13:02:00,
2013-03-11 08:07:00,32.4,31.6,29.75,NNE,14,0.0,0.0,97,0.00,,,0.00,16,Wunderground v.1.15,2013-03-11 13:07:00,
2013-03-11 08:12:00,32.4,31.6,29.75,NNE,14,0.0,0.0,97,0.00,,,0.00,21,Wunderground v.1.15,2013-03-11 13:12:00,
2013-03-11 08:17:00,32.5,31.7,29.74,NNE,14,0.0,0.0,97,0.00,,,0.00,26,Wunderground v.1.15,2013-03-11 13:17:00,
2013-03-11 08:22:00,32.5,31.7,29.74,NNE,14,0.0,0.0,97,0.00,,,0.00,32,Wunderground v.1.15,2013-03-11 13:22:00,
2013-03-11 08:27:00,32.5,31.7,29.74,NNE,14,0.0,0.0,97,0.00,,,0.00,40,Wunderground v.1.15,2013-03-11 13:27:00,
2013-03-11 08:32:00,32.5,31.7,29.74,NNE,13,0.0,0.0,97,0.00,,,0.01,44,Wunderground v.1.15,2013-03-11 13:32:00,
2013-03-11 08:37:00,32.5,31.7,29.74,NNE,13,0.0,0.0,97,0.00,,,0.01,42,Wunderground v.1.15,2013-03-11 13:37:00,
2013-03-11 08:42:00,32.5,31.7,29.74,North,360,0.0,0.0,97,0.00,,,0.01,44,Wunderground v.1.15,2013-03-11 13:42:00,
2013-03-11 08:47:00,32.5,31.7,29.74,North,360,0.0,0.0,97,0.00,,,0.01,54,Wunderground v.1.15,2013-03-11 13:47:00,
2013-03-11 08:52:00,32.6,31.8,29.74,North,360,0.0,0.0,97,0.00,,,0.01,54,Wunderground v.1.15,2013-03-11 13:52:00,
2013-03-11 08:57:00,32.6,31.8,29.73,North,360,0.0,0.0,97,0.00,,,0.01,60,Wunderground v.1.15,2013-03-11 13:57:00,
2013-03-11 09:02:00,32.6,31.8,29.73,North,355,0.0,0.0,97,0.00,,,0.01,72,Wunderground v.1.15,2013-03-11 14:02:00,
2013-03-11 09:07:00,32.6,31.8,29.72,North,355,0.0,0.0,97,0.00,,,0.02,86,Wunderground v.1.15,2013-03-11 14:07:00,
2013-03-11 09:12:00,32.6,31.8,29.72,North,351,0.0,0.0,97,0.00,,,0.02,91,Wunderground v.1.15,2013-03-11 14:12:00,
2013-03-11 09:17:00,32.7,31.9,29.72,North,351,0.0,0.0,97,0.00,,,0.02,91,Wunderground v.1.15,2013-03-11 14:17:00,
2013-03-11 09:23:00,32.7,31.9,29.73,North,350,0.0,0.0,97,0.00,,,0.02,95,Wunderground v.1.15,2013-03-11 14:23:00,
2013-03-11 09:28:00,32.7,31.9,29.73,North,350,0.0,0.0,97,0.00,,,0.02,84,Wunderground v.1.15,2013-03-11 14:28:00,
2013-03-11 09:33:00,32.8,32.0,29.72,NNW,348,0.0,0.0,97,0.00,,,0.02,98,Wunderground v.1.15,2013-03-11 14:33:00,
2013-03-11 09:38:00,32.8,32.0,29.72,NNW,347,0.0,0.0,97,0.00,,,0.02,105,Wunderground v.1.15,2013-03-11 14:38:00,
2013-03-11 09:43:00,32.8,32.0,29.72,NNW,346,0.0,0.0,97,0.00,,,0.02,113,Wunderground v.1.15,2013-03-11 14:43:00,
2013-03-11 09:48:00,32.9,32.1,29.72,NNW,342,0.0,0.0,97,0.00,,,0.02,134,Wunderground v.1.15,2013-03-11 14:48:00,
2013-03-11 09:53:00,32.8,32.0,29.71,NNW,340,0.0,0.0,97,0.00,,,0.02,139,Wunderground v.1.15,2013-03-11 14:53:00,
2013-03-11 09:58:00,32.9,32.1,29.71,NNW,338,0.0,0.0,97,0.00,,,0.02,165,Wunderground v.1.15,2013-03-11 14:58:00,
2013-03-11 10:03:00,33.0,32.2,29.70,NNW,336,0.0,7.0,97,0.00,,,0.02,174,Wunderground v.1.15,2013-03-11 15:03:00,
2013-03-11 10:08:00,33.1,32.3,29.70,NNW,337,1.0,7.0,97,0.00,,,0.03,178,Wunderground v.1.15,2013-03-11 15:08:00,
2013-03-11 10:13:00,33.2,32.4,29.69,NNW,331,4.0,6.0,97,0.00,,,0.03,183,Wunderground v.1.15,2013-03-11 15:13:00,
2013-03-11 10:18:00,33.3,32.5,29.70,NNW,329,2.0,8.0,97,0.00,,,0.03,185,Wunderground v.1.15,2013-03-11 15:18:00,
2013-03-11 10:23:00,33.4,32.6,29.70,NNW,329,0.0,4.0,97,0.00,,,0.03,281,Wunderground v.1.15,2013-03-11 15:23:00,
2013-03-11 10:28:00,33.6,33.1,29.69,NNW,329,5.0,7.0,98,0.00,,,0.03,211,Wunderground v.1.15,2013-03-11 15:28:00,
2013-03-11 10:33:00,33.6,32.8,29.69,NNW,334,2.0,8.0,97,0.00,,,0.03,197,Wunderground v.1.15,2013-03-11 15:33:00,
2013-03-11 10:38:00,33.7,32.9,29.68,NNW,335,4.0,9.0,97,0.00,,,0.03,218,Wunderground v.1.15,2013-03-11 15:38:00,
2013-03-11 10:43:00,33.7,32.9,29.68,NW,312,2.0,8.0,97,0.00,,,0.03,262,Wunderground v.1.15,2013-03-11 15:43:00,
2013-03-11 10:48:00,33.8,33.0,29.68,NNW,346,2.0,8.0,97,0.00,,,0.03,227,Wunderground v.1.15,2013-03-11 15:48:00,
2013-03-11 10:53:00,33.9,33.1,29.68,NNW,329,0.0,10.0,97,0.00,,,0.03,213,Wunderground v.1.15,2013-03-11 15:53:00,
2013-03-11 10:58:00,33.9,33.1,29.69,North,9,2.0,10.0,97,0.00,,,0.03,214,Wunderground v.1.15,2013-03-11 15:58:00,
2013-03-11 11:03:00,34.0,33.2,29.69,North,355,2.0,9.0,97,0.00,,,0.03,167,Wunderground v.1.15,2013-03-11 16:03:00,
2013-03-11 11:08:00,34.0,33.2,29.70,North,355,1.0,9.0,97,0.00,,,0.03,160,Wunderground v.1.15,2013-03-11 16:08:00,
2013-03-11 11:13:00,33.9,33.1,29.70,North,355,5.0,7.0,97,0.00,,,0.03,149,Wunderground v.1.15,2013-03-11 16:13:00,
2013-03-11 11:18:00,33.8,33.0,29.70,NNW,344,5.0,7.0,97,0.00,,,0.03,151,Wunderground v.1.15,2013-03-11 16:18:00,
2013-03-11 11:23:00,33.8,33.0,29.70,North,360,2.0,8.0,97,0.00,,,0.03,155,Wunderground v.1.15,2013-03-11 16:23:00,
2013-03-11 11:29:00,33.8,33.0,29.69,NNW,329,2.0,8.0,97,0.00,,,0.03,153,Wunderground v.1.15,2013-03-11 16:29:00,
2013-03-11 11:33:00,33.7,32.9,29.69,North,360,2.0,8.0,97,0.00,,,0.03,135,Wunderground v.1.15,2013-03-11 16:33:00,
2013-03-11 11:38:00,33.7,32.9,29.70,North,355,2.0,8.0,97,0.00,,,0.03,121,Wunderground v.1.15,2013-03-11 16:38:00,
2013-03-11 11:44:00,33.8,33.0,29.70,North,355,0.0,4.0,97,0.00,,,0.03,144,Wunderground v.1.15,2013-03-11 16:44:00,
2013-03-11 11:49:00,33.7,32.9,29.69,NNW,332,7.0,9.0,97,0.00,,,0.03,139,Wunderground v.1.15,2013-03-11 16:49:00,
2013-03-11 11:54:00,33.6,32.8,29.69,NW,317,4.0,8.0,97,0.00,,,0.03,137,Wunderground v.1.15,2013-03-11 16:54:00,
2013-03-11 11:59:00,33.6,32.8,29.69,NNW,333,2.0,8.0,97,0.00,,,0.03,149,Wunderground v.1.15,2013-03-11 16:59:00,
2013-03-11 12:04:00,33.7,32.9,29.69,NNW,332,2.0,7.0,97,0.00,,,0.03,149,Wunderground v.1.15,2013-03-11 17:04:00,
2013-03-11 12:09:00,33.7,32.9,29.69,NNW,332,1.0,7.0,97,0.00,,,0.03,137,Wunderground v.1.15,2013-03-11 17:09:00,
2013-03-11 12:14:00,33.8,33.0,29.69,NNW,332,5.0,5.0,97,0.00,,,0.03,134,Wunderground v.1.15,2013-03-11 17:14:00,
2013-03-11 12:19:00,33.8,33.0,29.69,NNW,348,2.0,7.0,97,0.00,,,0.03,151,Wunderground v.1.15,2013-03-11 17:19:00,
2013-03-11 12:24:00,33.8,33.0,29.69,NNW,344,4.0,7.0,97,0.00,,,0.03,153,Wunderground v.1.15,2013-03-11 17:24:00,
2013-03-11 12:29:00,33.9,33.1,29.69,NNE,19,3.0,7.0,97,0.00,,,0.03,127,Wunderground v.1.15,2013-03-11 17:29:00,
2013-03-11 12:34:00,33.9,33.1,29.69,NNW,341,4.0,6.0,97,0.00,,,0.03,125,Wunderground v.1.15,2013-03-11 17:34:00,
2013-03-11 12:39:00,33.9,33.1,29.68,NNW,340,5.0,8.0,97,0.00,,,0.03,197,Wunderground v.1.15,2013-03-11 17:39:00,
2013-03-11 12:44:00,33.9,32.9,29.69,NNW,337,0.0,5.0,96,0.00,,,0.03,148,Wunderground v.1.15,2013-03-11 17:44:00,
2013-03-11 12:49:00,33.9,32.9,29.69,NNW,340,2.0,6.0,96,0.00,,,0.03,148,Wunderground v.1.15,2013-03-11 17:49:00,
2013-03-11 12:54:00,34.0,33.0,29.69,NW,307,6.0,9.0,96,0.00,,,0.03,142,Wunderground v.1.15,2013-03-11 17:54:00,
2013-03-11 12:59:00,33.9,32.9,29.68,NNW,342,1.0,9.0,96,0.00,,,0.03,134,Wunderground v.1.15,2013-03-11 17:59:00,
2013-03-11 13:04:00,33.9,32.9,29.68,NNW,336,0.0,6.0,96,0.00,,,0.03,125,Wunderground v.1.15,2013-03-11 18:04:00,
2013-03-11 13:09:00,33.9,32.9,29.68,NNW,331,0.0,6.0,96,0.00,,,0.03,120,Wunderground v.1.15,2013-03-11 18:09:00,
2013-03-11 13:14:00,33.9,32.9,29.68,NNW,331,4.0,5.0,96,0.00,,,0.03,113,Wunderground v.1.15,2013-03-11 18:14:00,
2013-03-11 13:19:00,33.8,32.8,29.68,WNW,296,4.0,7.0,96,0.00,,,0.03,135,Wunderground v.1.15,2013-03-11 18:19:00,
2013-03-11 13:24:00,33.8,33.8,29.68,WNW,296,4.0,8.0,100,0.00,,,0.03,153,Wunderground v.1.15,2013-03-11 18:24:00,
2013-03-11 13:29:00,33.8,33.8,29.68,WNW,300,4.0,8.0,100,0.00,,,0.03,162,Wunderground v.1.15,2013-03-11 18:29:00,
2013-03-11 13:34:00,33.8,32.8,29.68,NW,311,9.0,9.0,96,0.00,,,0.03,167,Wunderground v.1.15,2013-03-11 18:34:00,
2013-03-11 13:39:00,33.8,33.8,29.67,NNW,333,6.0,9.0,100,0.00,,,0.03,211,Wunderground v.1.15,2013-03-11 18:39:00,
2013-03-11 13:44:00,34.0,33.0,29.67,NNW,333,4.0,5.0,96,0.00,,,0.03,176,Wunderground v.1.15,2013-03-11 18:44:00,
2013-03-11 13:49:00,34.0,33.0,29.67,NW,323,5.0,9.0,96,0.00,,,0.03,229,Wunderground v.1.15,2013-03-11 18:49:00,
2013-03-11 13:54:00,34.1,33.1,29.67,NW,315,4.0,6.0,96,0.00,,,0.03,220,Wunderground v.1.15,2013-03-11 18:54:00,
2013-03-11 13:59:00,34.1,33.1,29.67,NW,322,2.0,7.0,96,0.00,,,0.03,193,Wunderground v.1.15,2013-03-11 18:59:00,
2013-03-11 14:04:00,34.2,33.2,29.67,NW,322,4.0,5.0,96,0.00,,,0.04,163,Wunderground v.1.15,2013-03-11 19:04:00,
2013-03-11 14:09:00,34.1,33.1,29.67,NW,319,0.0,7.0,96,0.00,,,0.04,165,Wunderground v.1.15,2013-03-11 19:09:00,
2013-03-11 14:14:00,34.1,33.1,29.67,NW,319,6.0,7.0,96,0.00,,,0.04,197,Wunderground v.1.15,2013-03-11 19:14:00,
2013-03-11 14:19:00,34.1,32.8,29.67,NW,319,0.0,7.0,95,0.00,,,0.04,155,Wunderground v.1.15,2013-03-11 19:19:00,
2013-03-11 14:24:00,34.1,32.8,29.67,NW,305,4.0,7.0,95,0.00,,,0.04,206,Wunderground v.1.15,2013-03-11 19:24:00,
2013-03-11 14:29:00,34.1,33.1,29.67,NW,305,1.0,7.0,96,0.00,,,0.04,158,Wunderground v.1.15,2013-03-11 19:29:00,
2013-03-11 14:34:00,34.2,33.2,29.66,NW,305,2.0,4.0,96,0.00,,,0.04,149,Wunderground v.1.15,2013-03-11 19:34:00,
2013-03-11 14:39:00,34.1,32.8,29.66,NW,306,0.0,6.0,95,0.00,,,0.04,148,Wunderground v.1.15,2013-03-11 19:39:00,
2013-03-11 14:44:00,34.0,32.7,29.67,NW,313,6.0,9.0,95,0.00,,,0.04,156,Wunderground v.1.15,2013-03-11 19:44:00,
2013-03-11 14:49:00,34.0,32.7,29.66,NW,319,6.0,9.0,95,0.00,,,0.04,188,Wunderground v.1.15,2013-03-11 19:49:00,
2013-03-11 14:54:00,34.0,32.7,29.66,NW,314,2.0,8.0,95,0.00,,,0.04,185,Wunderground v.1.15,2013-03-11 19:54:00,
2013-03-11 14:59:00,34.1,32.8,29.66,NW,304,6.0,9.0,95,0.00,,,0.04,186,Wunderground v.1.15,2013-03-11 19:59:00,
2013-03-11 15:04:00,34.0,32.7,29.66,NW,304,4.0,7.0,95,0.00,,,0.04,167,Wunderground v.1.15,2013-03-11 20:04:00,
2013-03-11 15:09:00,34.0,32.7,29.66,WNW,297,0.0,7.0,95,0.00,,,0.05,155,Wunderground v.1.15,2013-03-11 20:09:00,
2013-03-11 15:14:00,34.0,32.7,29.66,NW,308,4.0,8.0,95,0.00,,,0.05,174,Wunderground v.1.15,2013-03-11 20:14:00,
2013-03-11 15:19:00,33.9,32.6,29.66,NW,317,1.0,8.0,95,0.00,,,0.05,130,Wunderground v.1.15,2013-03-11 20:19:00,
2013-03-11 15:24:00,33.9,32.6,29.67,NW,314,0.0,5.0,95,0.00,,,0.05,104,Wunderground v.1.15,2013-03-11 20:24:00,
2013-03-11 15:29:00,33.8,32.5,29.66,NW,314,1.0,5.0,95,0.00,,,0.05,111,Wunderground v.1.15,2013-03-11 20:29:00,
2013-03-11 15:34:00,33.9,32.6,29.66,NW,314,1.0,4.0,95,0.00,,,0.05,137,Wunderground v.1.15,2013-03-11 20:34:00,
2013-03-11 15:39:00,33.8,32.5,29.66,NW,308,5.0,6.0,95,0.00,,,0.05,135,Wunderground v.1.15,2013-03-11 20:39:00,
2013-03-11 15:44:00,33.8,32.5,29.66,WNW,302,6.0,6.0,95,0.00,,,0.05,165,Wunderground v.1.15,2013-03-11 20:44:00,
2013-03-11 15:49:00,33.9,32.9,29.66,WNW,303,2.0,6.0,96,0.00,,,0.05,153,Wunderground v.1.15,2013-03-11 20:49:00,
2013-03-11 15:54:00,33.9,32.9,29.66,WNW,303,1.0,5.0,96,0.00,,,0.05,141,Wunderground v.1.15,2013-03-11 20:54:00,
2013-03-11 15:59:00,33.9,32.9,29.67,WNW,299,0.0,6.0,96,0.00,,,0.05,132,Wunderground v.1.15,2013-03-11 20:59:00,
2013-03-11 16:04:00,33.9,32.9,29.67,WNW,299,4.0,6.0,96,0.00,,,0.05,114,Wunderground v.1.15,2013-03-11 21:04:00,
2013-03-11 16:09:00,33.9,32.9,29.67,WNW,295,4.0,6.0,96,0.00,,,0.05,107,Wunderground v.1.15,2013-03-11 21:09:00,
2013-03-11 16:14:00,33.8,32.8,29.67,WNW,288,5.0,8.0,96,0.00,,,0.06,107,Wunderground v.1.15,2013-03-11 21:14:00,
2013-03-11 16:19:00,33.8,32.8,29.67,WNW,290,2.0,8.0,96,0.00,,,0.06,109,Wunderground v.1.15,2013-03-11 21:19:00,
2013-03-11 16:24:00,33.8,32.8,29.67,WNW,290,0.0,5.0,96,0.00,,,0.06,88,Wunderground v.1.15,2013-03-11 21:24:00,
2013-03-11 16:29:00,33.7,32.7,29.67,WNW,289,1.0,6.0,96,0.00,,,0.06,79,Wunderground v.1.15,2013-03-11 21:29:00,
2013-03-11 16:34:00,33.7,32.7,29.67,WNW,288,5.0,5.0,96,0.00,,,0.06,70,Wunderground v.1.15,2013-03-11 21:34:00,
2013-03-11 16:39:00,33.7,32.7,29.67,WNW,288,0.0,5.0,96,0.00,,,0.06,67,Wunderground v.1.15,2013-03-11 21:39:00,
2013-03-11 16:45:00,33.8,32.8,29.67,WNW,288,0.0,5.0,96,0.00,,,0.06,54,Wunderground v.1.15,2013-03-11 21:45:00,
2013-03-11 16:50:00,33.8,33.8,29.67,WNW,290,0.0,2.0,100,0.00,,,0.06,49,Wunderground v.1.15,2013-03-11 21:50:00,
2013-03-11 16:55:00,33.7,32.7,29.67,WNW,284,1.0,9.0,96,0.00,,,0.06,46,Wunderground v.1.15,2013-03-11 21:55:00,
2013-03-11 17:00:00,33.6,32.3,29.67,WNW,294,1.0,5.0,95,0.00,,,0.06,49,Wunderground v.1.15,2013-03-11 22:00:00,
2013-03-11 17:05:00,33.6,32.1,29.67,WNW,296,8.0,8.0,94,0.00,,,0.06,60,Wunderground v.1.15,2013-03-11 22:05:00,
2013-03-11 17:10:00,33.6,32.1,29.67,WNW,287,9.0,11.0,94,0.00,,,0.06,60,Wunderground v.1.15,2013-03-11 22:10:00,
2013-03-11 17:15:00,33.7,31.9,29.67,West,269,5.0,11.0,93,0.00,,,0.06,62,Wunderground v.1.15,2013-03-11 22:15:00,
2013-03-11 17:20:00,33.7,31.9,29.67,WNW,303,8.0,16.0,93,0.00,,,0.06,62,Wunderground v.1.15,2013-03-11 22:20:00,
2013-03-11 17:25:00,33.7,31.4,29.68,WNW,283,4.0,15.0,91,0.00,,,0.06,42,Wunderground v.1.15,2013-03-11 22:25:00,
2013-03-11 17:30:00,33.6,31.3,29.68,NW,308,11.0,11.0,91,0.00,,,0.06,30,Wunderground v.1.15,2013-03-11 22:30:00,
2013-03-11 17:35:00,33.5,30.9,29.68,West,279,1.0,12.0,90,0.00,,,0.06,26,Wunderground v.1.15,2013-03-11 22:35:00,
2013-03-11 17:40:00,33.5,30.9,29.68,WNW,302,5.0,6.0,90,0.00,,,0.06,30,Wunderground v.1.15,2013-03-11 22:40:00,
2013-03-11 17:45:00,33.4,30.8,29.68,West,273,5.0,18.0,90,0.00,,,0.06,32,Wunderground v.1.15,2013-03-11 22:45:00,
2013-03-11 17:50:00,33.3,30.7,29.69,WNW,285,12.0,12.0,90,0.00,,,0.06,25,Wunderground v.1.15,2013-03-11 22:50:00,
2013-03-11 17:55:00,33.1,30.2,29.69,West,279,11.0,18.0,89,0.00,,,0.06,23,Wunderground v.1.15,2013-03-11 22:55:00,
2013-03-11 18:00:00,33.0,30.1,29.70,West,281,7.0,8.0,89,0.00,,,0.06,19,Wunderground v.1.15,2013-03-11 23:00:00,
2013-03-11 18:05:00,32.9,29.7,29.70,West,261,6.0,13.0,88,0.00,,,0.06,18,Wunderground v.1.15,2013-03-11 23:05:00,
2013-03-11 18:10:00,32.8,29.6,29.70,WNW,296,7.0,7.0,88,0.00,,,0.06,12,Wunderground v.1.15,2013-03-11 23:10:00,
2013-03-11 18:15:00,32.7,29.5,29.71,NW,304,9.0,15.0,88,0.00,,,0.06,5,Wunderground v.1.15,2013-03-11 23:15:00,
2013-03-11 18:20:00,32.6,29.4,29.71,NW,304,7.0,11.0,88,0.00,,,0.06,5,Wunderground v.1.15,2013-03-11 23:20:00,
2013-03-11 18:25:00,32.6,29.4,29.72,NW,304,5.0,12.0,88,0.00,,,0.06,0,Wunderground v.1.15,2013-03-11 23:25:00,
2013-03-11 18:30:00,32.5,29.1,29.72,NW,304,5.0,7.0,87,0.00,,,0.06,0,Wunderground v.1.15,2013-03-11 23:30:00,
2013-03-11 18:35:00,32.4,29.0,29.72,NW,304,9.0,18.0,87,0.00,,,0.06,5,Wunderground v.1.15,2013-03-11 23:35:00,
2013-03-11 18:40:00,32.3,28.9,29.73,NW,304,4.0,6.0,87,0.00,,,0.06,0,Wunderground v.1.15,2013-03-11 23:40:00,
2013-03-11 18:45:00,32.1,28.7,29.73,NW,304,4.0,12.0,87,0.00,,,0.06,0,Wunderground v.1.15,2013-03-11 23:45:00,
2013-03-11 18:50:00,32.1,28.7,29.73,NW,304,4.0,12.0,87,0.00,,,0.06,0,Wunderground v.1.15,2013-03-11 23:50:00,
2013-03-11 18:55:00,32.0,28.6,29.73,NW,304,4.0,12.0,87,0.00,,,0.06,0,Wunderground v.1.15,2013-03-11 23:55:00,
2013-03-11 19:00:00,31.9,28.5,29.74,NW,304,2.0,11.0,87,0.00,,,0.06,0,Wunderground v.1.15,2013-03-12 00:00:00,
2013-03-11 19:06:00,31.9,28.5,29.74,NW,304,5.0,11.0,87,0.00,,,0.06,0,Wunderground v.1.15,2013-03-12 00:06:00,
2013-03-11 19:11:00,31.8,28.4,29.74,NW,304,5.0,19.0,87,0.00,,,0.06,0,Wunderground v.1.15,2013-03-12 00:11:00,
2013-03-11 19:16:00,31.7,28.0,29.74,NW,304,8.0,19.0,86,0.00,,,0.06,0,Wunderground v.1.15,2013-03-12 00:16:00,
2013-03-11 19:21:00,31.7,28.0,29.74,NW,304,8.0,11.0,86,0.00,,,0.06,0,Wunderground v.1.15,2013-03-12 00:21:00,
2013-03-11 19:26:00,31.6,27.9,29.75,NW,304,12.0,12.0,86,0.00,,,0.06,0,Wunderground v.1.15,2013-03-12 00:26:00,
2013-03-11 19:32:00,31.6,27.9,29.75,NW,304,2.0,12.0,86,0.00,,,0.06,0,Wunderground v.1.15,2013-03-12 00:32:00,
2013-03-11 19:37:00,31.6,27.9,29.75,NW,304,5.0,14.0,86,0.00,,,0.06,0,Wunderground v.1.15,2013-03-12 00:37:00,
2013-03-11 19:42:00,31.5,27.8,29.76,NW,304,11.0,11.0,86,0.00,,,0.06,0,Wunderground v.1.15,2013-03-12 00:42:00,
2013-03-11 19:47:00,31.5,27.8,29.76,NW,304,7.0,11.0,86,0.00,,,0.06,0,Wunderground v.1.15,2013-03-12 00:47:00,
2013-03-11 19:52:00,31.5,27.8,29.76,NW,304,6.0,12.0,86,0.00,,,0.06,0,Wunderground v.1.15,2013-03-12 00:52:00,
2013-03-11 19:57:00,31.5,27.8,29.77,NW,304,7.0,12.0,86,0.00,,,0.06,0,Wunderground v.1.15,2013-03-12 00:57:00,
2013-03-11 20:02:00,31.5,27.8,29.77,NW,304,2.0,11.0,86,0.00,,,0.06,0,Wunderground v.1.15,2013-03-12 01:02:00,
2013-03-11 20:07:00,31.4,27.7,29.77,NW,304,1.0,11.0,86,0.00,,,0.06,0,Wunderground v.1.15,2013-03-12 01:07:00,
2013-03-11 20:12:00,31.4,27.7,29.78,NW,304,9.0,9.0,86,0.00,,,0.06,0,Wunderground v.1.15,2013-03-12 01:12:00,
2013-03-11 20:17:00,31.4,28.0,29.78,NW,304,0.0,12.0,87,0.00,,,0.06,0,Wunderground v.1.15,2013-03-12 01:17:00,
2013-03-11 20:22:00,31.3,27.9,29.79,NW,304,5.0,11.0,87,0.00,,,0.06,0,Wunderground v.1.15,2013-03-12 01:22:00,
2013-03-11 20:27:00,31.3,27.9,29.78,NW,304,6.0,11.0,87,0.00,,,0.06,0,Wunderground v.1.15,2013-03-12 01:27:00,
2013-03-11 20:32:00,31.3,27.9,29.79,NW,304,4.0,8.0,87,0.00,,,0.06,0,Wunderground v.1.15,2013-03-12 01:32:00,
2013-03-11 20:37:00,31.2,28.1,29.79,NW,304,6.0,9.0,88,0.00,,,0.06,0,Wunderground v.1.15,2013-03-12 01:37:00,
2013-03-11 20:42:00,31.2,28.1,29.79,NW,304,0.0,9.0,88,0.00,,,0.06,0,Wunderground v.1.15,2013-03-12 01:42:00,
2013-03-11 20:47:00,31.2,28.1,29.80,NW,304,2.0,9.0,88,0.00,,,0.06,0,Wunderground v.1.15,2013-03-12 01:47:00,
2013-03-11 20:52:00,31.2,28.3,29.80,NW,304,2.0,9.0,89,0.00,,,0.06,0,Wunderground v.1.15,2013-03-12 01:52:00,
2013-03-11 20:57:00,31.2,28.3,29.80,NW,304,2.0,9.0,89,0.00,,,0.06,0,Wunderground v.1.15,2013-03-12 01:57:00,
2013-03-11 21:02:00,31.1,28.2,29.80,NW,304,12.0,12.0,89,0.00,,,0.06,0,Wunderground v.1.15,2013-03-12 02:02:00,
2013-03-11 21:07:00,31.0,28.1,29.80,NW,304,5.0,15.0,89,0.00,,,0.06,0,Wunderground v.1.15,2013-03-12 02:07:00,
2013-03-11 21:12:00,30.9,27.8,29.81,NW,304,6.0,14.0,88,0.00,,,0.06,0,Wunderground v.1.15,2013-03-12 02:12:00,
2013-03-11 21:17:00,30.7,27.6,29.81,NW,304,13.0,14.0,88,0.00,,,0.06,0,Wunderground v.1.15,2013-03-12 02:17:00,
2013-03-11 21:22:00,30.4,27.3,29.81,NW,304,11.0,17.0,88,0.00,,,0.06,0,Wunderground v.1.15,2013-03-12 02:22:00,
2013-03-11 21:27:00,30.1,27.3,29.81,NW,304,8.0,17.0,89,0.00,,,0.06,0,Wunderground v.1.15,2013-03-12 02:27:00,
2013-03-11 21:32:00,29.8,27.2,29.81,NW,304,5.0,12.0,90,0.00,,,0.06,0,Wunderground v.1.15,2013-03-12 02:32:00,
2013-03-11 21:37:00,29.6,27.3,29.81,NW,304,5.0,12.0,91,0.00,,,0.06,0,Wunderground v.1.15,2013-03-12 02:37:00,
2013-03-11 21:42:00,29.4,27.4,29.82,NW,304,4.0,11.0,92,0.00,,,0.06,0,Wunderground v.1.15,2013-03-12 02:42:00,
2013-03-11 21:47:00,29.3,27.3,29.82,NW,304,2.0,14.0,92,0.00,,,0.06,0,Wunderground v.1.15,2013-03-12 02:47:00,
2013-03-11 21:52:00,29.2,27.4,29.82,NW,304,4.0,14.0,93,0.00,,,0.06,0,Wunderground v.1.15,2013-03-12 02:52:00,
2013-03-11 21:58:00,29.0,27.2,29.82,NW,304,2.0,14.0,93,0.00,,,0.06,0,Wunderground v.1.15,2013-03-12 02:58:00,
2013-03-11 22:03:00,28.9,27.1,29.82,NW,304,2.0,14.0,93,0.00,,,0.06,0,Wunderground v.1.15,2013-03-12 03:03:00,
2013-03-11 22:08:00,28.8,27.0,29.82,NW,304,5.0,14.0,93,0.00,,,0.06,0,Wunderground v.1.15,2013-03-12 03:08:00,
2013-03-11 22:13:00,28.7,26.7,29.82,NW,304,2.0,13.0,92,0.00,,,0.06,0,Wunderground v.1.15,2013-03-12 03:13:00,
2013-03-11 22:18:00,28.7,26.7,29.83,NW,304,12.0,14.0,92,0.00,,,0.06,0,Wunderground v.1.15,2013-03-12 03:18:00,
2013-03-11 22:23:00,28.6,26.6,29.83,NW,304,5.0,15.0,92,0.00,,,0.06,0,Wunderground v.1.15,2013-03-12 03:23:00,
2013-03-11 22:28:00,28.5,26.5,29.83,NW,304,11.0,16.0,92,0.00,,,0.06,0,Wunderground v.1.15,2013-03-12 03:28:00,
2013-03-11 22:33:00,28.4,26.4,29.84,NW,304,11.0,18.0,92,0.00,,,0.06,0,Wunderground v.1.15,2013-03-12 03:33:00,
2013-03-11 22:38:00,28.3,26.0,29.84,NW,304,8.0,19.0,91,0.00,,,0.06,0,Wunderground v.1.15,2013-03-12 03:38:00,
2013-03-11 22:43:00,28.1,25.5,29.84,NW,304,4.0,18.0,90,0.00,,,0.06,0,Wunderground v.1.15,2013-03-12 03:43:00,
2013-03-11 22:48:00,28.1,25.5,29.84,NW,304,11.0,18.0,90,0.00,,,0.06,0,Wunderground v.1.15,2013-03-12 03:48:00,
2013-03-11 22:53:00,28.0,25.2,29.84,NW,304,13.0,14.0,89,0.00,,,0.06,0,Wunderground v.1.15,2013-03-12 03:53:00,
2013-03-11 22:58:00,27.9,25.1,29.84,NW,304,1.0,17.0,89,0.00,,,0.06,0,Wunderground v.1.15,2013-03-12 03:58:00,
2013-03-11 23:00:00,27.9,25.1,29.84,NW,304,9.0,17.0,89,0.00,,,0.06,0,Wunderground v.1.15,2013-03-12 04:00:00,
2013-03-11 23:05:00,27.9,24.8,29.84,NW,304,8.0,16.0,88,0.00,,,0.06,0,Wunderground v.1.15,2013-03-12 04:05:00,
2013-03-11 23:10:00,27.9,24.5,29.84,NW,304,6.0,9.0,87,0.00,,,0.06,0,Wunderground v.1.15,2013-03-12 04:10:00,
2013-03-11 23:15:00,27.8,24.4,29.85,NW,304,8.0,11.0,87,0.00,,,0.06,0,Wunderground v.1.15,2013-03-12 04:15:00,
2013-03-11 23:20:00,27.8,23.9,29.85,NW,304,7.0,13.0,85,0.00,,,0.06,0,Wunderground v.1.15,2013-03-12 04:20:00,
2013-03-11 23:25:00,27.9,23.7,29.85,NW,304,7.0,15.0,84,0.00,,,0.06,0,Wunderground v.1.15,2013-03-12 04:25:00,
2013-03-11 23:30:00,27.9,23.4,29.85,NW,304,13.0,18.0,83,0.00,,,0.06,0,Wunderground v.1.15,2013-03-12 04:30:00,
2013-03-11 23:35:00,28.0,23.5,29.85,NW,304,5.0,18.0,83,0.00,,,0.06,0,Wunderground v.1.15,2013-03-12 04:35:00,
2013-03-11 23:40:00,28.0,23.5,29.86,NW,304,11.0,11.0,83,0.00,,,0.06,0,Wunderground v.1.15,2013-03-12 04:40:00,
2013-03-11 23:45:00,28.0,23.5,29.86,NW,304,6.0,17.0,83,0.00,,,0.06,0,Wunderground v.1.15,2013-03-12 04:45:00,
2013-03-11 23:50:00,28.1,23.3,29.86,NW,304,12.0,12.0,82,0.00,,,0.06,0,Wunderground v.1.15,2013-03-12 04:50:00,
2013-03-11 23:55:00,28.0,23.5,29.86,NW,304,6.0,14.0,83,0.00,,,0.06,0,Wunderground v.1.15,2013-03-12 04:55:00,